Content
SEND FEEDBACK

Daily
Averages
Monthly
Summary
United States of America

CARIBOU CITY, COLORADO


Home > North America > United States > Colorado
Elevation: 8370 feet     Latitude: 40 00N     Longitude: 105 31W

WEATHER
 
SELECT A DAY
Number of Records: 87,227;   Date Range: 3/4/10 - 9/15/14
 
SHARE

PRINT THIS DATA

[ ← Previous Day ]
WEATHER ALMANAC - FEBRUARY 13, 2013
[ Next Day → ]
[ °C ]   °F
Weather ElementAverageHighLow
Temperature30.1 °F50 °F (2:16 pm)12.2 °F (6:16 am)
Dewpoint9.6 °F12.4 °F (7:56 am)6.8 °F (6:16 am)
Humidity47 %80 % (7:16 am)18 % (2:16 pm)
Barometer29.94 in30.01 in (12:35 am)29.88 in (6:36 am)
Wind Speed4.7 mph25.3 mph (2:36 pm)
Wind Gust34.5 mph (2:36 pm)
Weather ElementAverage
Visibility10 mi
Wind DirectionESE (98 °)

Weather ElementTotal
Precipitation---
Heating Degree Days33.9 (Base 65)
Averaged from 70 records on February 13, 2013
WEATHER CONDITIONS BREAKOUT
WIND DIRECTION BREAKOUT
WEATHER BY HOUR - FEBRUARY 13, 2013
[ °C ]   °F
Local TimeTemperatureDewpointHumidityBarometerVisibilityWind DirectionWind SpeedGust SpeedPrecipitationEventsConditions
12:35 AM22.6 °F8.2 °F54 %30.01 in10.0 miCalmOvercast
12:56 AM23.7 °F8.2 °F52 %30.00 in10.0 miCalmOvercast
1:16 AM23.0 °F8.6 °F54 %29.99 in10.0 miCalmMostly Cloudy
1:36 AM22.6 °F7.7 °F53 %29.98 in10.0 miCalmScattered Clouds
1:56 AM19.0 °F9.5 °F66 %29.98 in10.0 miCalmClear
2:16 AM19.2 °F8.6 °F63 %29.96 in10.0 miCalmClear
2:36 AM18.5 °F8.4 °F65 %29.95 in10.0 miCalmClear
2:56 AM18.7 °F8.4 °F64 %29.94 in10.0 miCalmClear
3:16 AM15.4 °F7.7 °F71 %29.93 in10.0 miCalmClear
3:36 AM15.8 °F8.4 °F73 %29.92 in10.0 miCalmClear
3:56 AM15.4 °F7.2 °F70 %29.92 in10.0 miCalmClear
4:16 AM15.6 °F7.3 °F70 %29.92 in10.0 miNNW (340°)3.5 mphClear
4:36 AM15.8 °F7.5 °F70 %29.92 in10.0 miCalmClear
4:56 AM15.6 °F7.7 °F71 %29.92 in10.0 miCalmClear
5:16 AM15.6 °F8.6 °F74 %29.92 in10.0 miCalmClear
5:36 AM14.2 °F7.0 °F73 %29.91 in10.0 miCalmClear
5:56 AM14.9 °F8.6 °F76 %29.89 in10.0 miCalmClear
6:16 AM12.2 °F6.8 °F79 %29.89 in10.0 miCalmClear
6:36 AM14.5 °F7.5 °F74 %29.88 in10.0 miCalmClear
6:56 AM13.1 °F7.3 °F78 %29.88 in10.0 miCalmClear
7:16 AM12.6 °F7.5 °F80 %29.89 in10.0 miCalmClear
7:36 AM15.8 °F10.4 °F79 %29.91 in10.0 miCalmClear
7:56 AM22.3 °F12.4 °F66 %29.92 in10.0 miNNW (340°)3.5 mphClear
8:16 AM23.0 °F10.4 °F59 %29.92 in10.0 miCalmClear
8:36 AM25.3 °F10.6 °F54 %29.91 in10.0 miCalmClear
8:56 AM27.1 °F11.1 °F51 %29.91 in10.0 miCalmClear
9:16 AM28.9 °F11.1 °F47 %29.91 in10.0 miCalmClear
9:36 AM30.0 °F11.1 °F45 %29.91 in10.0 miNNE (30°)3.5 mphClear
9:56 AM32.5 °F11.1 °F41 %29.92 in10.0 miNorth (360°)4.6 mphClear
10:16 AM34.5 °F10.8 °F37 %29.94 in10.0 miNorth (10°)11.5 mphClear
10:36 AM33.8 °F10.6 °F38 %29.94 in10.0 miNorth (360°)5.8 mphClear
10:56 AM33.8 °F10.9 °F39 %29.95 in10.0 miNNE (30°)8.1 mphClear
11:16 AM35.4 °F10.4 °F36 %29.96 in10.0 miNNE (30°)5.8 mphClear
11:36 AM36.7 °F10.4 °F34 %29.96 in10.0 miNorth (10°)6.9 mphClear
11:56 AM37.6 °F10.4 °F33 %29.96 in10.0 miNorth (10°)8.1 mphClear
12:16 PM38.5 °F10.2 °F31 %29.95 in10.0 miCalmClear
12:36 PM40.6 °F9.5 °F28 %29.94 in10.0 miCalmClear
12:56 PM41.7 °F8.6 °F26 %29.94 in10.0 miCalmClear
1:16 PM44.8 °F7.9 °F22 %29.93 in10.0 miCalmClear
1:36 PM47.1 °F7.3 °F20 %29.92 in10.0 miCalmClear
1:56 PM49.1 °F7.7 °F19 %29.91 in10.0 miWNW (290°)5.8 mphClear
2:16 PM50.0 °F7.3 °F18 %29.90 in10.0 miWest (280°)20.7 mph26.5 mphClear
2:36 PM50.0 °F7.7 °F18 %29.90 in10.0 miWest (280°)25.3 mph34.5 mphClear
2:56 PM49.3 °F8.2 °F19 %29.90 in10.0 miWest (270°)21.9 mph28.8 mphClear
3:16 PM48.6 °F9.0 °F20 %29.92 in10.0 miWest (260°)21.9 mph31.1 mphClear
3:36 PM48.6 °F9.3 °F20 %29.92 in10.0 miWest (270°)18.4 mph25.3 mphClear
3:56 PM47.1 °F10.2 °F22 %29.90 in10.0 miWest (260°)16.1 mph23.0 mphClear
4:16 PM45.3 °F10.6 °F24 %29.90 in10.0 miWNW (290°)18.4 mph24.2 mphClear
4:36 PM45.7 °F10.8 °F24 %29.91 in10.0 miWest (270°)13.8 mph19.6 mphClear
4:56 PM44.8 °F10.9 °F25 %29.91 in10.0 miWest (270°)16.1 mph24.2 mphClear
5:16 PM43.2 °F11.8 °F28 %29.91 in10.0 miWest (280°)16.1 mph21.9 mphClear
5:36 PM41.0 °F11.3 °F30 %29.91 in10.0 miWest (270°)15.0 mphClear
5:56 PM40.6 °F11.1 °F30 %29.92 in10.0 miWest (270°)15.0 mphClear
6:16 PM39.4 °F10.9 °F31 %29.94 in10.0 miWest (270°)5.8 mphClear
6:36 PM38.7 °F10.4 °F31 %29.94 in10.0 miWSW (250°)5.8 mphClear
6:56 PM35.4 °F9.9 °F35 %29.95 in10.0 miWest (260°)4.6 mphClear
7:16 PM33.4 °F9.9 °F37 %29.95 in10.0 miWest (260°)5.8 mphClear
7:36 PM30.6 °F9.5 °F41 %29.96 in10.0 miCalmClear
7:56 PM26.8 °F10.4 °F50 %29.96 in10.0 miWest (260°)5.8 mphClear
8:16 PM27.0 °F10.4 °F50 %29.96 in10.0 miCalmClear
8:36 PM30.4 °F11.3 °F45 %29.96 in10.0 miCalmClear
8:56 PM30.4 °F11.5 °F45 %29.96 in10.0 miSSE (150°)4.6 mphClear
9:36 PM25.7 °F11.5 °F55 %29.96 in10.0 miCalmClear
9:56 PM23.9 °F12.4 °F62 %29.97 in10.0 miSW (220°)4.6 mphClear
10:16 PM25.7 °F12.2 °F57 %29.97 in10.0 miCalmClear
10:36 PM28.4 °F12.0 °F50 %29.97 in10.0 miESE (110°)4.6 mphClear
10:56 PM28.0 °F11.3 °F50 %29.97 in10.0 miCalmClear
11:16 PM27.9 °F10.9 °F49 %29.98 in10.0 miCalmClear
11:36 PM31.1 °F11.1 °F43 %29.98 in10.0 miCalmClear
11:56 PM30.0 °F11.5 °F46 %29.98 in10.0 miCalmClear
Hourly data recorded from KEIK, located miles away from Caribou City, Colorado







STORIES FROM OUR PARTNERS